This demonstration page uses our WeatherBlox Daily Observations layout. Learn more.

Left ArrowRight Arrow

39.08367, -84.50855

Hourly Observations for March 28, 2015

Temp ( °F °C ) Dew Point ( °F °C ) Humidity (%) Winds ( mph kmh ) Pressure ( in mb ) Visibility ( mi km ) Precip ( " mm )
12:53 am 00:53 Cloudy 28 -2.2 11 -11.7 49 49 N 10 17 30.15 1021 10 16.0934 N/A
1:53 am 01:53 Mostly Clear 26 -3.3 12 -11.1 55 55 NNW 14 22 30.16 1022 10 16.0934 N/A
2:53 am 02:53 Clear 24 -4.4 13 -10.6 62 62 NNW 12 19 30.17 1022 10 16.0934 N/A
3:53 am 03:53 Clear 23 -5 13 -10.6 65 65 NNW 8 13 30.17 1022 10 16.0934 N/A
4:53 am 04:53 Clear 22 -5.6 14 -10 71 71 NNW 8 13 30.18 1022 10 16.0934 N/A
5:53 am 05:53 Clear 21 -6.1 14 -10 74 74 N 8 13 30.2 1023 10 16.0934 N/A
6:53 am 06:53 Clear 21 -6.1 14 -10 74 74 NNE 7 11 30.23 1024 10 16.0934 N/A
7:53 am 07:53 Sunny 21 -6.1 15 -9.4 78 78 N N/A 30.26 1025 10 16.0934 N/A
8:53 am 08:53 Sunny 24 -4.4 16 -8.9 71 71 N 7 11 30.28 1026 10 16.0934 N/A
9:53 am 09:53 Partly Cloudy 26 -3.3 15 -9.4 63 63 VRB 3 6 30.3 1026 10 16.0934 N/A
10:53 am 10:53 Mostly Cloudy 30 -1.1 14 -10 51 51 NE 6 9 30.32 1027 10 16.0934 N/A
11:53 am 11:53 Partly Cloudy 31 -0.6 13 -10.6 47 47 VRB 5 7 30.33 1027 10 16.0934 N/A
12:53 pm 12:53 Sunny 32 undefined 12 -11.1 43 43 NNE 7 11 30.33 1027 10 16.0934 N/A
1:53 pm 13:53 Sunny 34 1.1 13 -10.6 42 42 N 9 15 30.33 1027 10 16.0934 N/A
2:53 pm 14:53 Sunny 35 1.7 12 -11.1 38 38 NNW 8 13 30.32 1027 10 16.0934 N/A
3:53 pm 15:53 Sunny 36 2.2 10 -12.2 34 34 WNW 9 15 30.32 1027 10 16.0934 N/A
4:53 pm 16:53 Sunny 35 1.7 9 -12.8 34 34 N N/A 30.31 1026 10 16.0934 N/A
5:53 pm 17:53 Sunny 37 2.8 11 -11.7 34 34 NNE 7 11 30.32 1027 10 16.0934 N/A
6:53 pm 18:53 Sunny 36 2.2 11 -11.7 35 35 N 5 7 30.33 1027 10 16.0934 N/A
7:53 pm 19:53 Sunny 33 0.6 11 -11.7 40 40 NNE 6 9 30.34 1028 10 16.0934 N/A
8:53 pm 20:53 Clear 31 -0.6 13 -10.6 47 47 NE 3 6 30.35 1028 10 16.0934 N/A
9:53 pm 21:53 Clear 28 -2.2 17 -8.3 63 63 N N/A 30.37 1029 10 16.0934 N/A
10:53 pm 22:53 Clear 27 -2.8 20 -6.7 75 75 N N/A 30.39 1029 10 16.0934 N/A
11:53 pm 23:53 Clear 26 -3.3 19 -7.2 75 75 N N/A 30.4 1030 10 16.0934 N/A

Powered by AerisWeather